Temp
7 9 9 9 9 10 10 11 9 11 11 13 14 14 13 11 10 9 8 7 6 5 4 2 1 0 -0 0 -1 1 2 0 -1 -1 -1 0 -1 -1 -0 -3 -3 -2 -1 -1
5 6 7 7 9 9 9 10 10 10 11 13 13 12 11 11 10 8 6 6 5 4 3 2 1 0 -1 -1 -1 -0 0 -0 -2 -2 -2 -2 -2 -2 -2 -3 -4 -5 -2 -5
6 8 7 6 8 9 10 11 10 8 11 13 13 13 12 11 11 10 7 5 4 4 3 2 0 -0 -0 -2 -2 -2 -2 -3 -3 -3 -3 -3 -3 -3 -4 -4 -7 -4 -5 -7
5 7 5 10 12 12 11 12 12 12 12 12 12 11 10 10 10 9 8 6 5 4 3 1 0 -1 -2 -2 -2 -1 -3 -3 -4 -4 -3 -3 -4 -5 -4 -5 -5 -4 -5 -7
4 6 8 10 11 11 10 10 13 13 13 12 11 10 11 7 7 7 6 4 4 4 3 2 0 -1 -1 -1 -1 -2 -2 -3 -3 -2 -3 -4 -4 -3 -4 -4 -4 -4 -5 -6
5 4 5 9 11 12 12 8 12 12 11 10 10 9 11 6 6 6 6 5 5 4 4 2 1 0 -1 -1 -1 -1 -2 -2 -2 -3 -4 -4 -4 -4 -4 -4 -5 -5 -6 -7
5 4 7 10 11 10 7 10 11 10 10 9 9 9 8 6 6 5 4 4 5 5 3 3 2 1 -1 -1 -1 -1 -2 -2 -3 -4 -4 -5 -5 -5 -4 -5 -6 -7 -7 -8
6 5 5 10 9 8 10 10 10 9 9 8 7 7 5 5 6 5 4 4 3 3 2 2 1 0 -0 -1 -2 -2 -1 -3 -3 -4 -5 -5 -5 -5 -6 -6 -7 -9 -10 -11
7 7 8 7 7 6 6 7 8 8 8 6 6 6 5 5 5 5 4 2 1 1 1 1 0 -1 -1 -2 -2 -2 -3 -3 -4 -5 -5 -6 -6 -6 -6 -7 -11 -11 -11 -12
5 7 8 8 8 7 7 7 7 7 6 5 6 6 5 4 4 4 2 -0 0 0 0 -1 -1 -1 -2 -2 -3 -3 -3 -3 -5 -5 -6 -7 -7 -8 -9 -11 -11 -11 -11 -11
5 6 6 6 7 7 7 6 6 5 5 4 5 4 4 3 2 1 -1 -1 -1 -1 -1 -1 -2 -3 -3 -3 -3 -4 -4 -4 -5 -5 -7 -8 -10 -10 -11 -10 -10 -11 -11 -11
4 5 5 3 5 6 6 6 6 5 4 3 3 4 4 3 0 -1 -1 -2 -1 -1 -1 -1 -3 -3 -4 -4 -4 -3 -4 -5 -5 -6 -10 -10 -11 -11 -10 -9 -9 -10 -11 -12
3 3 4 3 4 5 5 6 5 5 4 3 4 3 2 0 -1 -1 -2 -2 -1 -2 -1 -2 -2 -4 -4 -4 -4 -4 -4 -5 -7 -9 -10 -10 -11 -11 -10 -10 -11 -11 -11 -11
3 3 2 3 4 5 5 5 5 5 5 4 2 0 -1 -1 -2 -2 -2 -2 -2 -3 -3 -3 -3 -3 -4 -4 -4 -4 -5 -5 -6 -8 -9 -10 -10 -11 -11 -11 -12 -13 -13 -13
2 1 1 3 4 4 4 4 4 3 3 2 -0 -2 -2 -2 -3 -2 -2 -3 -3 -3 -3 -4 -3 -4 -4 -4 -5 -5 -5 -5 -7 -7 -9 -10 -11 -11 -12 -12 -13 -13 -14 -14
4 3 3 3 4 5 3 3 3 2 0 -1 -2 -2 -2 -2 -3 -3 -3 -3 -3 -4 -4 -4 -4 -4 -4 -5 -5 -5 -6 -6 -7 -8 -9 -10 -11 -12 -12 -12 -12 -13 -13 -13
3 3 3 3 4 4 3 2 2 1 -1 -2 -1 -2 -2 -4 -3 -3 -4 -4 -4 -4 -4 -4 -4 -5 -5 -5 -6 -6 -7 -7 -8 -9 -10 -11 -11 -12 -12 -12 -13 -13 -13 -13
4 4 4 4 4 3 2 1 0 -0 -0 -2 -2 -2 -3 -4 -4 -4 -4 -4 -4 -5 -5 -5 -5 -5 -6 -6 -7 -7 -7 -8 -9 -10 -10 -11 -11 -12 -12 -13 -13 -13 -13 -14
3 3 3 3 3 2 1 1 0 0 -0 -2 -2 -2 -3 -4 -4 -5 -5 -5 -5 -5 -6 -6 -6 -6 -7 -7 -7 -8 -8 -8 -9 -10 -10 -10 -11 -11 -11 -12 -13 -13 -14 -13
1 2 2 2 1 2 1 1 -0 -0 -1 -1 -2 -3 -3 -4 -5 -5 -5 -6 -6 -6 -6 -6 -6 -7 -7 -8 -8 -8 -9 -9 -10 -10 -10 -10 -10 -11 -12 -12 -13 -13 -14 -13
0 1 2 1 1 1 -0 -0 -0 -1 -2 -2 -3 -3 -4 -5 -5 -6 -6 -6 -6 -6 -6 -6 -7 -7 -7 -8 -9 -9 -9 -9 -9 -10 -10 -10 -11 -12 -12 -12 -12 -13 -13 -13
0 -0 -0 -0 -0 -1 -1 -1 -2 -3 -3 -3 -4 -4 -5 -5 -6 -6 -6 -6 -6 -6 -6 -7 -7 -7 -7 -8 -8 -8 -9 -9 -9 -9 -10 -10 -11 -11 -12 -11 -12 -12 -12 -13
-1 -2 -2 -1 -1 -2 -2 -3 -4 -4 -4 -5 -5 -5 -5 -5 -6 -7 -7 -6 -6 -6 -6 -7 -7 -7 -8 -8 -8 -8 -9 -9 -9 -9 -10 -10 -10 -11 -12 -12 -12 -12 -12 -13
-2 -3 -3 -3 -3 -3 -4 -5 -5 -5 -5 -5 -5 -5 -5 -6 -6 -6 -6 -7 -7 -7 -7 -7 -8 -8 -8 -8 -8 -9 -9 -9 -9 -10 -10 -10 -11 -11 -11 -11 -12 -12 -12 -13
-3 -4 -4 -4 -5 -6 -5 -6 -6 -7 -7 -7 -6 -6 -6 -7 -7 -7 -7 -7 -7 -7 -8 -8 -8 -9 -9 -9 -9 -9 -10 -10 -10 -10 -10 -11 -11 -12 -11 -12 -12 -12 -13 -13
-5 -5 -6 -6 -6 -6 -7 -7 -7 -7 -7 -7 -7 -7 -7 -7 -7 -7 -7 -8 -8 -8 -8 -9 -9 -10 -10 -10 -10 -10 -10 -10 -10 -11 -11 -11 -11 -12 -12 -12 -12 -13 -13 -13
-6 -6 -6 -7 -7 -7 -8 -8 -8 -8 -7 -7 -7 -7 -7 -7 -7 -8 -8 -8 -8 -9 -9 -9 -10 -10 -10 -11 -11 -11 -11 -11 -11 -11 -11 -11 -12 -12 -12 -12 -12 -13 -13 -13
Height
1483 1478 1481 1478 1476 1472 1468 1466 1470 1459 1452 1446 1439 1438 1439 1442 1442 1439 1436 1437 1435 1433 1432 1431 1434 1435 1438 1442 1445 1447 1454 1461 1467 1470 1471 1473 1476 1482 1483 1488 1489 1491 1493 1494
1486 1480 1481 1479 1470 1465 1466 1462 1457 1454 1449 1437 1441 1440 1439 1438 1437 1436 1435 1434 1432 1430 1430 1429 1428 1430 1434 1436 1439 1443 1448 1456 1463 1467 1468 1470 1475 1479 1481 1485 1486 1489 1491 1494
1471 1468 1471 1474 1455 1455 1452 1450 1450 1453 1440 1437 1435 1434 1434 1433 1431 1430 1431 1429 1427 1426 1425 1425 1425 1427 1430 1430 1435 1438 1446 1453 1458 1461 1465 1470 1476 1476 1480 1483 1486 1486 1489 1492
1479 1471 1472 1441 1439 1435 1437 1437 1435 1434 1432 1434 1431 1431 1432 1430 1428 1427 1426 1425 1422 1420 1419 1419 1422 1423 1424 1425 1429 1434 1443 1448 1452 1456 1464 1468 1471 1474 1477 1481 1484 1485 1487 1490
1479 1462 1449 1438 1430 1435 1437 1431 1428 1425 1425 1427 1427 1429 1426 1427 1426 1424 1421 1421 1418 1416 1415 1411 1412 1414 1417 1422 1427 1433 1436 1445 1453 1456 1460 1464 1468 1471 1475 1479 1482 1483 1488 1488
1465 1462 1449 1427 1427 1424 1428 1427 1422 1423 1426 1426 1426 1425 1421 1423 1422 1420 1418 1416 1412 1412 1411 1408 1408 1408 1413 1415 1421 1426 1435 1443 1449 1455 1460 1463 1468 1470 1472 1477 1480 1483 1485 1487
1456 1458 1436 1424 1425 1429 1434 1418 1417 1421 1423 1424 1424 1425 1424 1421 1420 1418 1415 1412 1409 1407 1405 1407 1407 1409 1411 1415 1418 1423 1432 1439 1448 1453 1458 1462 1467 1472 1472 1476 1477 1480 1482 1486
1445 1446 1437 1423 1424 1427 1421 1420 1420 1421 1421 1422 1422 1421 1420 1418 1417 1415 1413 1410 1407 1405 1404 1404 1405 1409 1410 1414 1417 1424 1431 1438 1445 1450 1456 1459 1465 1470 1473 1475 1477 1480 1481 1486
1433 1425 1422 1426 1425 1423 1426 1425 1421 1419 1419 1419 1419 1417 1416 1414 1413 1413 1412 1409 1407 1406 1405 1405 1406 1408 1410 1413 1418 1425 1432 1438 1444 1450 1455 1460 1464 1468 1470 1473 1478 1480 1481 1485
1435 1421 1422 1423 1421 1421 1420 1420 1418 1417 1418 1416 1414 1413 1413 1412 1410 1410 1411 1410 1407 1406 1406 1408 1407 1407 1410 1414 1419 1425 1431 1439 1445 1447 1453 1460 1464 1468 1471 1474 1476 1478 1483 1486
1426 1425 1422 1414 1415 1415 1414 1415 1414 1414 1415 1414 1411 1411 1410 1410 1410 1409 1411 1410 1408 1407 1406 1408 1410 1411 1413 1415 1420 1426 1432 1437 1442 1446 1453 1458 1464 1469 1472 1472 1474 1475 1481 1485
1416 1420 1419 1414 1413 1413 1411 1410 1412 1412 1412 1411 1410 1409 1409 1409 1409 1409 1409 1410 1410 1407 1407 1407 1411 1413 1414 1417 1421 1426 1432 1435 1440 1446 1452 1458 1463 1466 1468 1470 1473 1474 1477 1481
1413 1414 1414 1411 1410 1408 1408 1407 1409 1408 1409 1409 1407 1407 1408 1408 1408 1408 1408 1409 1409 1409 1408 1408 1411 1414 1416 1418 1422 1426 1431 1435 1441 1447 1451 1457 1461 1462 1464 1469 1472 1475 1479 1481
1409 1409 1406 1406 1404 1404 1404 1404 1403 1404 1405 1405 1405 1405 1406 1406 1407 1407 1408 1409 1410 1409 1409 1410 1410 1414 1417 1420 1423 1427 1431 1435 1441 1445 1450 1454 1458 1461 1462 1466 1470 1475 1479 1481
1401 1401 1400 1401 1401 1400 1400 1400 1401 1402 1402 1403 1403 1405 1407 1407 1407 1407 1407 1408 1409 1409 1410 1411 1411 1414 1417 1421 1424 1428 1431 1436 1440 1443 1447 1452 1456 1459 1463 1467 1472 1476 1478 1482
1394 1396 1396 1397 1398 1399 1399 1398 1400 1402 1402 1403 1403 1403 1405 1405 1405 1406 1407 1407 1408 1409 1410 1411 1412 1414 1418 1421 1425 1429 1432 1435 1439 1442 1446 1450 1454 1458 1463 1468 1472 1474 1477 1481
1389 1391 1392 1392 1394 1394 1395 1397 1399 1400 1401 1403 1403 1404 1404 1405 1405 1406 1407 1408 1409 1410 1411 1412 1413 1415 1418 1422 1426 1428 1431 1435 1439 1442 1446 1450 1454 1458 1463 1466 1469 1472 1476 1479
1386 1387 1386 1388 1389 1391 1392 1394 1397 1397 1398 1403 1403 1404 1404 1405 1405 1406 1407 1408 1409 1410 1411 1412 1414 1416 1419 1422 1425 1428 1431 1435 1438 1442 1445 1450 1454 1458 1461 1463 1467 1471 1474 1475
1382 1383 1383 1385 1387 1389 1391 1392 1395 1395 1398 1402 1403 1404 1405 1405 1405 1406 1407 1409 1410 1411 1412 1413 1415 1417 1420 1423 1426 1429 1432 1435 1438 1442 1445 1449 1452 1456 1459 1462 1465 1469 1471 1472
1378 1381 1382 1385 1386 1387 1389 1391 1393 1394 1399 1401 1403 1404 1404 1405 1405 1406 1407 1408 1409 1410 1412 1414 1416 1419 1421 1424 1427 1429 1432 1435 1438 1442 1445 1448 1452 1455 1458 1460 1463 1466 1468 1470
1378 1380 1382 1384 1386 1387 1390 1391 1392 1396 1399 1400 1402 1403 1404 1405 1405 1406 1408 1409 1410 1411 1413 1415 1418 1420 1422 1425 1428 1430 1433 1436 1439 1442 1445 1448 1451 1454 1456 1458 1461 1463 1465 1467
1379 1381 1384 1385 1386 1388 1390 1390 1394 1397 1398 1400 1401 1403 1404 1404 1405 1406 1408 1409 1410 1411 1413 1416 1418 1420 1423 1425 1428 1431 1434 1437 1440 1442 1445 1447 1449 1452 1454 1456 1458 1461 1463 1465
1380 1383 1385 1386 1388 1389 1390 1393 1396 1398 1399 1400 1401 1402 1404 1405 1406 1408 1409 1410 1410 1412 1413 1415 1417 1420 1423 1426 1428 1431 1434 1436 1439 1441 1444 1446 1448 1450 1452 1454 1456 1458 1460 1461
1381 1384 1387 1388 1389 1390 1393 1395 1397 1398 1399 1400 1401 1403 1404 1405 1406 1407 1408 1410 1410 1411 1412 1414 1416 1419 1422 1425 1427 1430 1432 1435 1437 1440 1442 1444 1446 1448 1450 1452 1454 1455 1457 1458
1383 1386 1387 1389 1390 1393 1394 1396 1397 1398 1399 1400 1401 1403 1404 1405 1407 1407 1409 1409 1410 1411 1412 1414 1416 1419 1421 1424 1426 1429 1431 1434 1436 1438 1440 1442 1444 1446 1448 1449 1451 1452 1453 1455
1385 1387 1389 1390 1392 1392 1394 1396 1397 1397 1398 1399 1400 1402 1403 1404 1405 1407 1408 1409 1410 1411 1412 1414 1416 1418 1421 1423 1425 1428 1430 1433 1435 1437 1439 1441 1442 1444 1445 1446 1448 1449 1450 1451
1384 1386 1387 1389 1390 1391 1393 1394 1395 1396 1397 1398 1399 1401 1402 1404 1405 1406 1408 1409 1410 1411 1413 1414 1416 1419 1421 1423 1426 1428 1431 1433 1435 1436 1438 1439 1440 1442 1443 1444 1445 1446 1447 1448
Wind_Speed
17 20 15 16 18 20 19 19 18 22 23 24 24 23 25 22 22 22 21 22 20 20 21 23 28 33 33 37 34 36 32 29 27 27 25 22 20 18 16 14 12 9 8 7
10 12 12 16 21 23 22 23 23 25 25 28 27 20 20 22 24 20 17 18 19 19 20 23 28 32 32 33 36 35 33 31 31 28 25 23 21 18 16 14 13 11 9 8
17 12 7 11 22 22 23 21 18 16 23 19 17 17 19 21 24 25 19 16 16 17 21 23 26 31 32 36 39 36 34 33 32 29 26 22 20 17 15 14 13 13 11 10
13 16 20 18 22 18 16 18 21 18 22 19 21 20 18 17 17 18 17 19 19 19 20 24 27 31 33 38 39 37 35 34 32 28 22 21 20 17 16 16 15 13 12 11
11 13 17 23 24 15 14 21 19 18 17 17 12 10 11 3 10 12 16 16 19 16 15 19 30 37 39 36 34 34 35 32 27 26 26 24 20 19 17 16 15 13 12 11
13 15 17 21 19 16 10 18 18 12 7 3 3 6 5 7 16 18 17 16 14 16 21 22 24 27 34 38 36 38 34 29 29 27 25 21 18 18 18 16 14 13 12 11
16 12 12 20 19 9 12 9 5 10 6 3 5 7 11 17 16 16 15 12 13 17 19 19 20 25 31 35 39 38 32 33 30 27 23 20 18 18 18 18 17 15 13 13
12 14 22 8 8 15 11 8 9 10 4 4 7 8 8 10 13 13 12 11 11 7 11 15 18 22 26 33 37 33 33 33 30 26 23 21 21 22 20 17 16 16 16 13
10 8 1 3 11 13 19 26 11 7 5 6 7 9 10 9 10 11 9 9 8 4 5 11 16 19 23 29 30 32 34 32 29 25 23 22 23 21 20 18 17 16 15 13
13 14 17 26 30 25 20 21 11 8 8 6 8 10 10 10 8 8 8 6 6 2 1 6 11 14 19 23 27 33 33 31 29 27 23 23 21 19 18 18 16 15 14 14
17 19 24 28 27 21 23 18 10 8 7 6 6 6 6 8 8 8 8 5 2 2 4 7 12 14 16 19 25 32 33 33 28 24 23 22 19 17 15 14 14 15 15 14
15 24 18 23 20 17 19 14 12 9 5 4 4 7 8 8 8 7 7 6 5 4 6 8 10 12 16 19 26 31 34 30 28 25 23 20 20 19 19 15 15 17 17 15
30 31 29 23 25 19 15 13 10 5 3 2 7 8 10 7 7 7 6 6 6 7 7 7 9 12 15 20 26 31 30 27 25 23 21 21 19 19 20 17 13 13 15 15
29 22 20 22 17 18 11 7 7 5 7 8 7 7 5 4 5 4 5 7 7 7 8 8 9 12 15 20 25 27 25 23 22 21 20 19 19 17 17 17 17 16 15 13
30 24 22 12 11 9 9 10 8 6 7 7 5 4 3 2 3 5 7 7 7 7 8 8 9 13 15 19 23 24 21 20 19 19 20 19 18 17 16 15 15 15 14 13
19 18 19 19 15 11 9 7 9 7 6 6 7 6 2 2 4 6 7 6 6 7 7 8 9 12 15 18 21 20 19 18 19 19 21 19 18 17 17 16 16 15 16 16
14 14 17 17 15 11 9 7 7 7 8 7 9 5 2 2 4 6 7 7 6 5 5 6 8 10 13 17 19 19 18 17 18 20 18 17 17 17 16 15 15 15 14 18
17 9 7 8 9 8 9 9 9 10 8 10 9 5 2 5 6 7 7 7 7 7 8 8 9 11 13 15 17 16 16 19 20 19 18 17 15 14 15 15 14 14 15 18
20 14 7 11 9 10 10 11 12 12 11 12 8 5 4 6 7 7 7 7 7 8 9 9 10 11 13 15 15 14 15 17 19 18 18 17 15 14 15 14 13 14 15 14
10 13 12 13 12 13 13 13 13 12 14 10 7 6 6 7 8 8 9 9 10 9 10 11 11 12 12 13 13 13 13 14 17 16 16 15 14 14 13 13 13 14 14 15
10 12 12 12 14 13 12 11 10 14 14 10 9 10 10 10 10 9 8 7 9 9 11 12 12 12 12 13 13 13 14 15 15 14 13 13 13 13 12 13 14 14 14 15
8 10 13 14 14 14 12 12 13 14 13 11 12 12 11 10 10 9 9 8 9 9 12 14 15 13 12 13 14 15 15 14 14 13 12 12 12 13 13 14 15 16 16 15
5 10 11 11 12 13 14 14 14 12 11 11 13 12 11 10 10 8 7 8 7 8 11 13 15 15 12 14 15 16 16 16 15 13 12 12 12 12 12 13 13 14 15 16
9 11 11 12 13 14 14 14 14 13 12 13 13 12 11 11 10 9 8 7 6 7 10 12 15 15 14 13 14 16 16 16 15 14 13 13 13 14 14 14 15 16 16 15
10 12 13 14 12 10 10 13 14 14 13 14 14 13 12 11 9 9 8 7 6 7 9 12 14 14 14 13 14 15 15 15 13 13 13 13 12 12 13 14 14 14 14 14
12 11 10 10 9 12 14 14 15 15 14 14 14 13 11 11 9 10 9 8 8 8 9 11 14 14 14 14 14 14 14 13 12 12 12 12 12 13 13 13 13 13 13 13
11 12 13 12 12 13 13 12 13 13 14 12 12 13 12 11 10 10 10 9 9 9 10 11 13 13 14 15 15 14 13 12 12 12 11 11 11 11 11 12 12 12 12 11
Wind_Direction
251 265 268 266 267 263 258 252 260 275 277 280 281 296 307 307 308 310 309 297 276 250 234 219 209 203 200 203 196 195 193 193 191 189 185 188 182 183 181 172 165 170 166 165
266 264 259 263 259 254 256 261 266 267 270 270 288 290 297 297 303 298 297 294 282 264 246 227 212 208 200 195 196 191 190 192 194 190 187 184 183 182 175 172 163 159 158 142
269 272 279 258 251 252 254 250 246 255 263 279 280 289 293 299 302 304 292 282 287 275 253 235 222 209 202 194 196 189 190 191 189 186 184 181 183 178 172 166 162 158 149 145
273 283 265 266 268 271 267 252 257 262 265 271 284 285 287 296 314 310 299 281 289 285 278 244 224 210 197 191 195 194 193 194 190 182 184 187 189 180 176 173 173 167 156 148
237 255 268 273 265 250 250 258 265 259 264 272 282 291 275 355 342 317 300 287 285 275 291 263 237 220 211 204 200 199 200 195 191 195 190 188 183 184 182 176 173 163 162 161
231 245 256 256 281 271 250 259 257 233 225 232 291 281 324 345 329 322 313 296 290 274 275 254 239 237 218 208 204 205 201 198 200 194 191 185 187 184 176 177 173 167 162 158
232 246 258 266 272 184 214 260 173 189 189 267 286 305 314 303 311 320 325 321 292 275 260 262 250 238 221 218 210 206 196 200 193 191 189 182 184 183 180 176 167 159 155 153
235 253 251 274 324 231 289 281 214 200 222 267 283 290 286 307 315 325 330 335 335 324 271 250 237 230 225 216 212 203 201 192 192 189 186 181 187 184 177 173 167 159 151 145
241 246 277 279 239 230 257 275 230 238 262 271 289 297 307 311 318 325 337 343 353 352 273 245 226 223 217 212 210 199 195 188 188 186 186 184 185 181 175 174 165 159 153 153
276 266 273 277 272 256 252 244 248 261 268 277 292 302 307 309 315 324 339 339 345 358 275 236 219 216 219 214 206 198 186 187 186 181 182 179 178 177 175 169 164 159 160 160
272 287 294 271 260 266 245 238 244 237 250 268 292 298 312 306 305 310 317 321 312 243 197 209 217 215 209 202 197 189 184 181 180 183 178 172 171 172 176 172 172 167 170 170
264 269 274 285 285 292 237 223 228 217 234 270 299 310 306 296 290 291 299 298 285 230 206 204 213 206 193 189 189 185 180 178 183 179 169 168 168 167 172 178 179 174 178 171
255 263 268 262 273 269 227 206 200 198 241 260 306 297 292 274 274 282 288 276 258 237 207 197 202 202 193 186 185 184 182 178 179 169 169 169 170 170 172 169 171 179 183 186
278 267 254 257 252 226 214 196 211 242 281 279 260 262 244 256 267 260 269 264 257 230 213 203 193 200 193 188 185 185 186 188 181 175 172 172 172 170 175 174 171 171 178 178
262 240 233 270 262 234 215 225 222 238 258 251 234 183 183 215 252 251 243 246 241 217 208 203 189 193 192 191 190 191 191 188 187 187 181 174 172 170 168 167 166 167 164 164
240 244 244 245 246 240 226 234 247 246 227 191 172 170 176 257 246 220 222 227 232 221 210 200 191 191 190 194 193 194 196 200 194 181 178 176 172 170 171 171 172 174 170 173
221 222 224 229 234 235 233 230 221 210 192 192 199 195 157 175 190 199 204 200 204 212 203 192 192 188 191 194 195 194 196 194 189 183 177 174 174 174 176 178 176 175 178 190
211 237 211 226 224 215 210 205 195 187 190 190 186 180 195 190 188 193 190 186 181 175 174 176 182 188 190 192 195 198 193 187 186 183 177 176 176 179 182 180 178 180 184 209
219 216 212 211 211 200 194 194 193 186 183 188 187 189 214 192 182 179 175 175 178 180 178 170 168 174 182 187 191 191 192 189 188 186 186 186 185 186 188 188 189 189 193 204
188 201 197 207 195 192 193 184 179 175 181 189 200 215 199 177 168 167 166 168 169 176 164 157 157 165 174 178 186 189 193 189 181 183 187 188 193 193 192 199 199 196 205 213
162 178 189 191 180 176 178 176 176 181 179 177 205 201 183 169 156 149 145 153 162 163 166 166 167 170 173 175 172 176 174 175 177 181 188 191 196 193 197 205 208 210 214 219
159 169 170 170 170 170 168 167 172 180 179 187 185 176 166 158 156 157 160 159 168 173 178 183 186 185 183 179 182 184 187 186 185 190 196 200 205 206 212 216 217 219 222 226
162 164 162 166 171 169 163 165 173 181 180 173 172 166 163 159 154 150 155 162 169 180 187 190 193 191 190 196 200 200 202 198 200 202 204 210 213 210 209 213 218 224 226 230
173 166 167 162 161 161 167 172 176 173 174 170 170 173 173 172 171 172 169 176 183 185 190 189 184 185 191 196 200 202 204 202 204 203 213 217 214 214 218 221 230 231 231 233
174 169 169 166 163 166 186 184 178 170 174 179 176 177 177 176 181 184 182 184 182 183 186 185 188 191 194 197 198 199 198 201 208 206 206 209 214 222 230 231 230 231 233 234
178 189 192 191 197 203 193 188 188 182 182 180 182 183 184 185 189 189 190 186 185 183 185 186 187 188 194 198 198 195 195 198 197 201 209 217 221 225 227 227 229 232 235 237
198 202 199 198 202 199 198 193 191 186 181 184 187 184 184 185 187 191 192 189 188 187 184 185 185 187 190 188 187 188 192 197 204 209 214 219 223 227 228 230 234 237 239 241